Flag for Canada Weather past 2 weeks in Shawinigan, Quebec, Canada

Now
68 °F

Mild.


Feels Like: 68 °F
Forecast: 51 / 72 °F
Wind: 5 mph from North

Location: Trois Rivieres

Current Time: Sep 3, 2015 at 10:13:51 PM

Latest Report: Sep 3, 2015 at 9:00 PM


Visibility: N/A

Pressure: 29.99 "Hg

Humidity: 51%

Dew point: 49 °F

Location of ShawiniganLocation

Historic Weather in Shawinigan — Graph

°F

Shawinigan temperature yesterday

Maximum temperature yesterday: 79 °F (at 5:00 PM)
Minimum temperature yesterday: 68 °F (at 9:00 AM)
Average temperature yesterday: 72 °F

Past Weeks' High & Low Weather Summary

 TemperatureHumidityPressure
High83 °F (Aug 20, 6:00 PM)99% (Aug 24, 5:00 AM)30.14 "Hg (Aug 24, 5:00 AM)
Low56 °F (Sep 1, 7:00 AM)32% (Sep 3, 4:00 PM)29.75 "Hg (Aug 24, 6:00 PM)
Average70 °F77%29.95 "Hg
* Reported Aug 19 9:00 PM — Sep 3 9:00 PM, Shawinigan, Weather by CustomWeather, © 2015

Note: Actual official high and low records may vary slightly from our data, if they occured in-between our weather recording intervals... More about our weather records

Advertising

Shawinigan weather history for previous 24 hours

 ConditionsComfort  
Time TempWeatherWind HumidityBarometerVisibility
9:00 PM
Thu, Sep 3
68 °FMild.5 mph51%29.99 "HgN/A
8:00 PM70 °FMild.5 mph53%29.97 "HgN/A
7:00 PM74 °FMild.7 mph41%29.94 "HgN/A
6:00 PM76 °FMild.8 mph36%29.93 "HgN/A
5:00 PM77 °FPleasantly warm.8 mph34%29.92 "HgN/A
4:00 PM78 °FPleasantly warm.7 mph32%29.91 "HgN/A
3:00 PM77 °FPleasantly warm.7 mph36%29.92 "HgN/A
2:00 PM76 °FMild.8 mph37%29.92 "HgN/A
1:00 PM74 °FMild.6 mph46%29.93 "HgN/A
12:00 PM73 °FMild.8 mph48%29.93 "HgN/A
11:00 AM71 °FMild.6 mph62%29.93 "HgN/A
10:00 AM69 °FMild.10 mph58%29.93 "HgN/A
9:00 AM68 °FMild.9 mph71%29.92 "HgN/A
8:00 AM68 °FMild.8 mph80%29.90 "HgN/A
7:00 AM68 °FMild.6 mph88%29.87 "HgN/A
6:00 AM69 °FMild.9 mph89%29.85 "HgN/A
5:00 AM69 °FMild.2 mph98%29.83 "HgN/A
4:00 AM70 °FMild.5 mph98%29.83 "HgN/A
3:00 AM70 °FMild.1 mph96%29.81 "HgN/A
2:00 AM72 °FMild.6 mph93%29.82 "HgN/A
1:00 AM72 °FMild.5 mph89%29.82 "HgN/A
12:00 AM72 °FMild.3 mph88%29.82 "HgN/A
11:00 PM
Wed, Sep 2
72 °FMild.5 mph84%29.82 "HgN/A
10:00 PM73 °FMild.3 mph90%29.81 "HgN/A
Weather by CustomWeather, © 2015

See weather overviewHow to use our weather pages